Weather History for La Ceiba, Honduras

Change the Weather History Date:

Wednesday, November 7, 2012

  Actual Average Record
Temperature  
Mean Temperature 73 °F -  
Max Temperature 77 °F 80 °F 87 °F (1996)
Min Temperature 69 °F 68 °F 66 °F (2008)
Cooling Degree Days 8    
Growing Degree Days 23 (Base 50)    
Moisture  
Dew Point 69 °F    
Average Humidity 87    
Maximum Humidity 94    
Minimum Humidity 64    
Precipitation  
Precipitation 0.16 in 0.69 in - ()
Sea Level Pressure  
Sea Level Pressure 30.01 in    
Wind  
Wind Speed 5 mph ()    
Max Wind Speed 9 mph    
Max Gust Speed -    
Visibility 4.7 miles    
Events Rain    
Averages and records for this station are not official NWS values.
T = Trace of Precipitation, MM = Missing Value Source: Averaged Metar Reports

Daily Weather History Graph

Daily Weather History Graph

Search for Another Location

Airport:

Trip Planner

Search our weather history database for the weather conditions in past years. The results will help you decide how hot, cold, wet, or windy it might be!

Date:

Astronomy

Nov. 07, 2012 Rise Set
Actual Time 5:46 AM CST 5:15 PM CST
Civil Twilight 5:24 AM CST 5:37 PM CST
Nautical Twilight 4:58 AM CST 6:03 PM CST
Astronomical Twilight 4:32 AM CST 6:29 PM CST
Moon No Moon Rise 12:27 PM CST (11/7)
Length of Visible Light 12h 13m
Length of Day
11h 28m
Last Quarter, 43% of the Moon is Illuminated
Nov 7
Last Quarter
Nov 13
New
Nov 20
First Quarter
Nov 28
Full
Dec 6
Last Quarter

Hourly Weather History & Observations

Time (CST) Temp. Dew Point Humidity Pressure Visibility Wind Dir Wind Speed Gust Speed Precip Events Conditions
12:00 AM 72 °F 70 °F 91% 30.01 in 1 mi South 6.9 mph - - Rain Rain
12:00 AM 71.6 °F 69.8 °F 94% 30.01 in 1.2 mi South 6.9 mph - N/A Rain Rain
6:00 AM 72 °F 66 °F 77% 30.01 in 6 mi SSW 6.9 mph - -   Overcast
6:00 AM 71.6 °F 66.2 °F 83% 30.01 in 6.2 mi SSW 6.9 mph - N/A   Mostly Cloudy
7:00 AM 73.4 °F 66.2 °F 78% 30.01 in 6.2 mi SSW 5.8 mph - N/A   Light Drizzle
8:00 AM 73.4 °F 69.8 °F 88% 30.01 in 6.2 mi SW 4.6 mph - N/A   Mostly Cloudy
9:00 AM 72 °F 69 °F 88% 30.05 in 4 mi South 9.2 mph - - Rain Light Drizzle
9:00 AM 71.6 °F 69.8 °F 94% 30.04 in 3.7 mi South 9.2 mph - N/A   Light Drizzle
10:00 AM 73.4 °F 69.8 °F 88% 30.04 in 2.5 mi South 6.9 mph - N/A   Drizzle
11:00 AM 73.4 °F 69.8 °F 88% 30.04 in 1.9 mi Calm Calm - N/A   Drizzle
12:00 PM 73 °F 71 °F 90% 30.03 in 2 mi South 2.3 mph - - Rain Light Drizzle
12:00 PM 73.4 °F 71.6 °F 94% 30.01 in 1.9 mi South 2.3 mph - N/A   Drizzle
1:00 PM 75.2 °F 71.6 °F 89% 29.98 in 6.2 mi South 5.8 mph - N/A   Overcast
2:00 PM 77.0 °F 69.8 °F 78% 29.95 in 6.2 mi SW 8.1 mph - N/A   Mostly Cloudy
3:00 PM 74 °F 70 °F 82% 29.97 in 4 mi South 4.6 mph - - Rain Light Drizzle
3:00 PM 73.4 °F 69.8 °F 88% 29.95 in 4.3 mi South 4.6 mph - N/A   Overcast
4:00 PM 73.4 °F 69.8 °F 88% 29.98 in 4.3 mi SSW 4.6 mph - N/A   Drizzle
5:00 PM 71.6 °F 68.0 °F 88% 29.98 in 1.2 mi South 4.6 mph - N/A   Light Drizzle
6:00 PM 71 °F 69 °F 89% 30.01 in 6 mi East 3.5 mph - - Rain Light Drizzle
6:00 PM 71.6 °F 68.0 °F 88% 30.01 in 6.2 mi East 3.5 mph - N/A   Light Drizzle
7:00 PM 71.6 °F 69.8 °F 94% 30.01 in 6.2 mi NE 3.5 mph - N/A   Overcast
8:00 PM 71.6 °F 68.0 °F 88% 30.04 in 6.2 mi East 3.5 mph - N/A   Overcast
9:00 PM 71 °F 69 °F 91% 30.06 in 10 mi Calm Calm - -   Haze
9:00 PM 71.6 °F 69.8 °F 94% 30.04 in 6.2 mi Calm Calm - N/A   Overcast
10:00 PM 69.8 °F 64.4 °F 83% 30.04 in 6.2 mi ESE 4.6 mph - N/A   Mostly Cloudy
11:00 PM 69.8 °F 57.2 °F 64% 30.04 in 6.2 mi SE 4.6 mph - N/A   Mostly Cloudy